Location: Frizzleburg
(41.0764°N, 80.4548°W)
Time: 02:42:17
(UTC+00:00)

Cosmos 1048 Rocket - Pass Details

Date: 17 November 2019
Orbit: 742 x 792 km, 74.0° (Epoch: 08 December)

Event Time Altitude Azimuth Distance (km) Brightness Sun altitude
Rises 11:28:12 0° 338° (NNW) 3,300 6.9 -8.5°
Reaches altitude 10° 11:30:37 10° 336° (NNW) 2,365 6.1 -8.0°
Maximum altitude 11:35:59 71° 254° (WSW) 834 4.1 -7.1°
Drops below altitude 10° 11:41:15 10° 171° (S) 2,329 6.9 -6.1°
Sets 11:43:37 0° 169° (S) 3,246 7.7 -5.7°
